Location: Владивосток
(43.1151°N, 131.8856°E)
Time: 23:50:35
(UTC+10:00)

BlueWalker 3 - Pass Details

Date: 09 December 2022
Orbit: 499 x 517 km, 53.2° (Epoch: 01 February)

Event Time Altitude Azimuth Distance (km) Brightness Sun altitude
Rises 19:16:55 0° 307° (NW) 2,627 6.1 -17.5°
Reaches altitude 10° 19:19:09 10° 311° (NW) 1,734 5.1 -17.9°
Maximum altitude 19:23:02 63° 32° (NNE) 569 1.9 -18.6°
Enters shadow 19:23:46 51° 84° (E) 645 2.0 -18.7°
